#timestamp,LO_Frequency,Hit,StdDev 
1601103615.2,286047001.1,N
1601103635.0,286046998.4,N
1601103635.9,286046998.4,N
1601103655.8,286046999.2,N
1601103675.6,286046997.5,N
1601103695.4,286046997.2,N
1601103715.3,286046999.5,N
1601103735.1,286046999.5,N
1601103755.8,286046996.8,N
1601103775.7,286046999.5,N
1601103795.5,286046999.4,N
1601103815.3,286046997.0,N
1601103835.2,286046999.5,N
1601103855.0,286046999.3,N
1601103855.9,286046999.3,N
1601103875.8,286046997.0,N
1601103895.6,286046998.5,N
1601103915.9,286046996.5,Y
1601103935.7,286046998.7,P
1601103955.6,286046999.6,P
1601103975.4,286046997.3,P
1601104025.3,286046996.7,E
1601104035.2,286046998.8,N
1601104055.0,286047002.3,P
1601104055.9,286047002.3,N
1601104075.8,286047000.2,N
1601104095.6,286047002.1,N
1601104115.4,286047002.8,N
1601104135.3,286047000.8,N
1601104155.1,286046998.3,N
1601104175.9,286047000.5,N
1601104195.7,286047000.4,N
1601104215.5,286047000.4,N
1601104235.4,286047001.0,N
1601104255.2,286047000.7,N
1601104275.0,286046999.8,N
1601104275.9,286046999.8,N
1601104295.8,286047002.1,N
1601104315.6,286047002.8,N
1601104335.5,286047000.4,N
1601104355.3,286047000.4,N
1601104375.1,286047000.7,N
1601104395.9,286047001.0,N
1601104415.7,286046998.7,N
1601104435.5,286047001.1,N
1601104455.4,286047001.1,N
1601104475.2,286047000.9,N
1601104495.1,286047000.7,N
1601104496.0,286047000.7,N
1601104515.8,286046999.7,N
1601104535.6,286047002.2,N
1601104555.5,286047002.6,N
1601104575.3,286046999.7,N
1601104595.2,286047002.4,N
1601104615.9,286047000.1,N
1601104635.7,286047001.5,N
1601104655.8,286047002.7,N
1601104675.6,286047002.8,N
1601104695.5,286047002.8,N
1601104715.3,286046999.8,N
1601104735.2,286047002.0,N
1601104755.9,286047001.6,N
1601104775.7,286047000.7,N
1601104795.6,286046998.9,N
1601104815.4,286047000.6,N
1601104835.2,286046998.2,N
1601104855.1,286046998.5,N
1601104856.0,286046998.5,N
1601104875.8,286046998.2,N
1601104895.7,286046999.4,N
1601104915.5,286046999.0,N
1601104935.3,286046998.3,N
1601104955.2,286047000.2,N
1601104975.0,286046999.7,N
1601104975.9,286046999.7,N
1601104995.7,286047000.7,N
1601105015.6,286047002.2,N
1601105035.4,286047002.7,N
1601105055.3,286047000.2,N
1601105075.1,286047000.3,N
1601105076.0,286047000.3,N
1601105095.8,286047002.8,N
1601105115.7,286047002.3,N
1601105135.5,286047002.0,N
1601105155.4,286047001.5,N
1601105175.2,286047002.6,N
1601105195.0,286047002.7,N
1601105195.9,286047002.7,N
1601105215.8,286047002.2,N
1601105235.6,286047000.1,N
1601105255.5,286047001.0,N
1601105275.3,286047000.5,N
1601105295.2,286047000.5,N
1601105315.9,286046998.1,N
1601105335.7,286046998.6,N
1601105355.6,286047000.0,N
1601105375.4,286047000.7,N
1601105395.2,286047000.1,N
1601105415.1,286047000.3,N
1601105416.0,286047000.3,N
1601105435.8,286047002.5,N
1601105455.7,286047001.9,N
1601105475.5,286047002.4,N
1601105495.3,286047001.5,N
1601105515.2,286047001.9,N
1601105535.0,286047002.2,N
1601105535.9,286047002.2,N
1601105555.7,286047002.5,N
1601105575.6,286047000.9,N
1601105595.4,286047001.2,N
1601105615.3,286047000.6,N
1601105635.1,286046998.1,N
1601105636.0,286046998.1,N
1601105655.8,286047000.0,N
1601105675.7,286047001.9,N
1601105695.5,286046999.9,N
1601105715.3,286046999.7,N
1601105735.2,286047003.9,N
1601105755.0,286047004.4,Y
1601105755.9,286047004.4,P
1601105775.8,286047001.5,N
1601105795.6,286047000.0,N
1601105815.4,286046999.9,N
1601105835.3,286047000.6,N
1601105855.1,286047000.8,N
1601105875.8,286047000.6,N
1601105895.7,286046999.8,N
1601105915.5,286047000.0,N
1601105935.4,286047002.3,N
1601105955.2,286047002.7,N
1601105975.0,286047000.1,N
1601105975.9,286047000.1,N
1601105995.8,286047000.1,N
1601106015.6,286047000.5,N
1601106035.5,286047004.1,Y
1601106055.3,286046999.9,P
1601106075.1,286047000.0,N
1601106095.9,286047000.6,N
1601106115.7,286047002.2,Y
1601106135.5,286047002.3,P
1601106155.4,286047000.1,N
1601106175.2,286047000.2,N
1601106195.1,286047001.2,N
1601106196.0,286047001.2,N
1601106215.8,286046998.6,N
1601106235.6,286047000.4,N
1601106255.5,286046998.8,N
1601106275.3,286047001.2,N
1601106295.1,286047001.2,N
1601106315.9,286046998.6,N
1601106335.7,286047002.6,N
1601106355.6,286046998.6,N
1601106375.4,286046998.3,N
1601106395.2,286046996.8,N
1601106415.1,286046996.5,N
1601106416.0,286046996.5,N
1601106435.8,286046996.7,N
1601106455.6,286046999.4,N
1601106475.5,286046998.6,N
1601106495.3,286046996.5,N
1601106515.2,286046997.9,N
1601106535.9,286046995.3,N
1601106555.7,286046998.5,N
1601106575.6,286046998.4,N
1601106595.4,286046999.3,N
1601106615.2,286046996.8,N
1601106635.1,286046997.0,N
1601106636.0,286046997.0,N
1601106655.8,286046999.2,N
1601106675.7,286047002.8,N
1601106695.5,286047002.8,N
1601106715.3,286047002.6,N
1601106735.2,286046998.1,N
1601106755.0,286046997.0,N
1601106755.9,286046997.0,N
1601106775.8,286046999.6,N
1601106795.6,286046996.8,N
1601106815.4,286046997.0,N
1601106835.3,286046999.6,N
1601106855.1,286046996.9,N
1601106875.9,286046997.7,N
1601106895.7,286046995.0,N
1601106915.5,286046999.6,N
1601106935.4,286046997.0,N
1601106955.2,286046997.4,N
1601106975.0,286046997.0,N
1601106975.9,286046997.0,N
1601106995.8,286046997.3,N
1601107015.6,286046999.1,N
1601107035.5,286046996.9,N
1601107055.3,286046996.9,N
1601107075.1,286046999.2,N
1601107095.9,286046996.5,N
1601107115.7,286046999.6,N
1601107135.5,286046996.6,N
1601107155.4,286046999.5,N
1601107175.2,286046998.9,N
1601107195.1,286046997.3,N
1601107196.0,286046997.3,N
